Location: Les Gen�tes
(46.3104°N, 1.5969°E)
Time: 04:04:16
(UTC+00:00)

Cosmos 1331 Rocket - Pass Details

Date: 01 June 2020
Orbit: 749 x 778 km, 74.0° (Epoch: 07 July)

Event Time Altitude Azimuth Distance (km) Brightness Sun altitude
Exits shadow 20:57:21 - 185° (S) 2,772 6.5 -11.0°
Reaches altitude 10° 20:58:41 10° 182° (S) 2,263 6.0 -11.1°
Maximum altitude 21:03:40 54° 106° (ESE) 915 4.1 -11.7°
Drops below altitude 10° 21:08:42 10° 30° (NNE) 2,291 6.8 -12.2°
Sets 21:11:08 0° 26° (NNE) 3,225 7.6 -12.5°
